User: anonymous   Login
Location: South Tamworth Observatory
(43.8246°N, 71.3026°W)
Time: 23:11:14
(UTC-04:00)
Language:

Cosmos 1844 - Orbit

View from above orbital plane
View from above orbital plane
View from above satellite
View from above satellite

Ground track
Ground track

The orbit data is extracted from the following two-line orbital elements,

1 17973U 87041A   15091.49802718  .00000410  00000-0  23995-3 0  9998
2 17973 070.8993 175.7440 0033123 257.8723 189.0364 14.13978320438979
Epoch (UTC): 01 April 2015 11:57:09
Eccentricity: 0.0033123
inclination: 70.8993°
perigee height: 822 km
apogee height: 870 km
right ascension of ascending node: 175.7440°
argument of perigee: 257.8723°
revolutions per day: 14.13978320
mean anomaly at epoch: 189.0364°
orbit number at epoch: 43897

The dashed part of the orbit path shows where the satellite is in the earth's shadow,  

DLR